Home > Weather > Porto Novo > Past weeks

Flag for Benin Past Weather in Porto Novo, Benin — Yesterday and Last 2 Weeks

Now
79 °F

Partly cloudy.


Feels Like: 82 °F
Forecast: 76 / 83 °F
Wind: 14 mph from Southwest

Location: Cotonou Airport

Current Time: Aug 26, 2016 at 7:45:12 PM

Latest Report: Aug 26, 2016 at 7:00 PM


Visibility: N/A

Pressure: 29.83 "Hg

Humidity: 84%

Dew Point: 73 °F

Location of Porto NovoLocation

Past Weather in Porto Novo — Graph

°F

Porto Novo Temperature Yesterday

Maximum temperature yesterday: 82 °F (at 11:00 AM)
Minimum temperature yesterday: 75 °F (at 4:00 AM)
Average temperature yesterday: 78 °F

High & Low Weather Summary for the Past Weeks

 TemperatureHumidityPressure
High84 °F (Aug 12, 12:00 PM)100% (Aug 21, 3:00 AM)29.98 "Hg (Aug 21, 3:00 AM)
Low75 °F (Aug 15, 7:00 AM)70% (Aug 14, 2:00 PM)29.80 "Hg (Aug 25, 5:00 PM)
Average78 °F87%29.89 "Hg
* Reported Aug 11 6:00 PM — Aug 26 6:00 PM, Porto Novo, Weather by CustomWeather, © 2016

Note: Actual official high and low records may vary slightly from our data, if they occured in-between our weather recording intervals... More about our weather records

Advertising

Porto Novo Weather History for the Previous 24 Hours

Scroll right to see more
 ConditionsComfort  
Time TempWeatherWind HumidityBarometerVisibility
6:00 PM
Fri, Aug 26
79 °FScattered clouds.13 mph84%29.83 "HgN/A
5:00 PM81 °FScattered clouds.15 mph79%29.80 "HgN/A
4:00 PM81 °FScattered clouds.16 mph79%29.80 "HgN/A
3:00 PM82 °FScattered clouds.18 mph74%29.83 "HgN/A
2:00 PM81 °FBroken clouds.16 mph84%29.86 "HgN/A
1:00 PM81 °FBroken clouds.15 mph79%29.89 "HgN/A
12:00 PM81 °FScattered clouds.15 mph79%29.92 "HgN/A
11:00 AM81 °FScattered clouds.15 mph79%29.92 "HgN/A
10:00 AM79 °FScattered clouds.15 mph89%29.89 "HgN/A
9:00 AM77 °FBroken clouds.13 mph89%29.92 "HgN/A
8:00 AM77 °FScattered clouds.14 mph89%29.89 "HgN/A
7:00 AM77 °FScattered clouds.13 mph89%29.86 "HgN/A
6:00 AM77 °FPassing clouds.14 mph89%29.86 "HgN/A
5:00 AM77 °FPassing clouds.14 mph89%29.86 "HgN/A
4:00 AM77 °FPassing clouds.10 mph89%29.86 "HgN/A
3:00 AM77 °FPassing clouds.13 mph89%29.86 "HgN/A
2:00 AM77 °FPassing clouds.13 mph89%29.86 "HgN/A
1:00 AM77 °FPassing clouds.12 mph89%29.89 "HgN/A
12:00 AM77 °FPassing clouds.13 mph89%29.89 "HgN/A
11:00 PM
Thu, Aug 25
77 °FPassing clouds.14 mph89%29.89 "HgN/A
10:00 PM77 °FPassing clouds.13 mph89%29.89 "HgN/A
9:00 PM77 °FPassing clouds.10 mph89%29.86 "HgN/A
8:00 PM77 °FPassing clouds.12 mph89%29.86 "HgN/A
7:00 PM77 °FPassing clouds.13 mph89%29.83 "HgN/A
Weather by CustomWeather, © 2016

See weather overviewHow to use our weather pages